Voltar ao catálogo

STARLINK-35837

AtivoComunicaçõesVLEO
NORAD 66840·PAYLOAD·🇺🇸 United States

Lançado Dec 2, 2025 de Vandenberg Space Force Base

Loading…

Próximas Passagens (próximas 24 horas)

TLE

AtualizadoSource: CelesTrak SupGP

Época: Sep 14, 2026, 22:39 UTC

1 66840C 25280V   26257.94423611 -.00015234  00000+0 -12764-2 0  2578
2 66840  70.0010 217.3661 0003397 266.2022  40.8042 14.98345359    12

Acompanhe STARLINK-35837 em tempo real com AllMySat

Download on the App Store